{"data":{"norad_id":52832,"intl_designator":"2022-062C","name":"STARLINK-4083","alt_names":[],"object_type":"PAYLOAD","status":"ACTIVE","operator":null,"country":"US","launch_date":"2022-06-17","launch_site_code":"AFETR","launch_vehicle":null,"mission":null,"orbit_class":"UNKNOWN","rcs_meters":null,"size_class":null,"mass_kg":null,"dimensions":null,"purposes":["comms"],"wikipedia_slug":null,"has_3d_model":false,"image_url":null,"decayed_at":null,"tle_current":{"epoch":"2026-05-25T00:20:53.231136Z","epoch_age_seconds":73474,"freshness":"FRESH","line1":"1 52832U 22062C   26145.01450499  .00000391  00000+0  42671-4 0  9998","line2":"2 52832  53.2163  51.4836 0001636  90.1754 269.9426 15.08841672217304","mean_motion":15.08841672,"eccentricity":0.0001636,"inclination_deg":53.2163,"raan_deg":51.4836,"arg_perigee_deg":90.1754,"mean_anomaly_deg":269.9426,"bstar":4.2671e-5,"rev_number":21730,"period_min":95.437448920088,"perigee_km":538.60651393818,"apogee_km":540.87004272925,"semimajor_km":6917.8752783337,"source":"CELESTRAK","updated_at":"2026-05-25T13:38:17.240554Z"}}}